Погода Агинское

Погода Агинское : погода сейчас, прогноз погоды и архив. Всё, что Вы хотите узнать о погоде Агинское!

Хотите узнать прогноз погоды Агинское? Тогда Вам сюда: Погода Агинское

Поиск расширенной информации на нашем сайте:

Другие новости

Новости СМИ2

Главная страница сайта

Новости сайта

03.07.2017

Напоминаем, что на нашем специализированном сайте Метеоцентр.Азия вы можете получить высокодетализированные автоматические прогнозы погоды по пунктам России, СНГ и мира в авиационном формате (включающие направление и скорость ветра, видимость, явления погоды, количество и форму облачности, нижнюю и верхнюю границу облачности).


Погода Агинское - сегодня

Время (UTC), дата Ветер
(°,м/с) 
Видим.   Явления Облачность Т
(°С)
Тd
(°С)
f(%) Тe
(°С)
Pmin
(гПа)
dP
(гПа)
Po
(мм)
O2
(г/м3)
Тmin Tmax R s Состояние
почвы
03 21.09.17 080 (В) 20000 м    10/0 средняя, верхняя 
[Ac lent|Cs]
+14.9 +2.7 44 +15  991.1  -1.9  686  262           
06 21.09.17 130 (ЮВ) 5{10}  20000 м    10/3 600 м кучево-дожд., средняя 
[Cb calv|Ac As]
+17.8 +2.4 36 +18  987.6  -2.5  684  258           
09 21.09.17 060 (СВ) 20000 м    3/3 1000 м 
[Cu med, cong]
+19.1 +3.1 35 +20  985.6  -1.5  683  257           
12 21.09.17 090 (В) 20000 м    1/1 1000 м 
[Sc diur, vesp]
+11.6 +4.6 62 +12  987  -0.5  683  263    +19.6       
15 21.09.17 280 (З) 20000 м    ясно 
+4.4 +3.1 91 +4  989.2  683  270           
18 21.09.17 250 (З) 20000 м    ясно 
+4.5 +2.6 87 +4  990.1  0.9  684  270           
21 21.09.17 350 (С) 20000 м    1/1 1000 м 
[Sc]
+2.2 +1.3 94 +3  992  1.1  684  273           
00 22.09.17 130 (ЮВ) 20000 м    10/4 600 м средняя 
[Frnb|As op]
+4.2 +2.7 90 +5  992.4  685  271  +0.6        сухая 
03 22.09.17 310 (СЗ) 8-12{12}  20000 м    10/6 1000 м средняя 
[Sc|As trans]
+6.1 +1.9 74 +3  992.4  0.5  686  270           
06 22.09.17 310 (СЗ) 7-11{16}  20000 м    9/9 600 м 
[Sc]
+7.2 +1 65 +5  993.8  1.5  687  269           
09 22.09.17 290 (З) 5{15}  20000 м    10/5 600 м верхняя 
[Sc|Ci fib]
+7.4 +1.5 66 +6  995.3  1.5  688  269           
12 22.09.17 310 (СЗ) 2{15}  20000 м    4/0 средняя, верхняя 
[Ac trans|Ci fib]
+5.6 +0.8 71 +5  997.4  1.5  689  272    +7.9       
15 22.09.17 250 (З) 20000 м    1/0 средняя 
[Ac lent]
+0.7 -1.1 88 +1  1000.3  1.3  690  277           
18 22.09.17 220 (ЮЗ) 20000 м    ясно 
-1.1 -2.5 90 -1  1001.9  0.9  691  280           
21 22.09.17 тихо ()   20000 м    ясно 
-1.3 -4.2 81 -1  1003.7  1.5  692  280           
00 23.09.17 тихо ()   20000 м    1/0 верхняя 
[Ci fib]
+2.8 -2.3 69 +3  1004.8  2.2  693  277  -3        сухая 
03 23.09.17 280 (З) 20000 м    ясно 
+10.1 -4.9 34 +9  1002.6  693  270           
06 23.09.17 270 (З) 6-10{11}  20000 м    3/3 1000 м 
[Cu hum]
+13.3 -4.7 28 +12  1001.2  -0.5  693  267           
09 23.09.17 280 (З) 5{13}  20000 м    10/3 1000 м средняя, верхняя 
[Cu Sc|Ac trans|Ci fib]
+12.6 -3.4 33 +12  1002.5  694  267           
12 23.09.17 280 (З) 4{13}  20000 м    3/1 1000 м верхняя 
[Sc|Ci fib]
+9.6 -2.1 44 +9  1005.7  2.2  695  271    +14.1       
15 23.09.17 290 (З) 20000 м    ясно 
+6.5 -1.1 58 +7  1008.5  1.7  697  274           
18 23.09.17 280 (З) 20000 м    ясно 
+2.3 -2.1 73 +2  1011.6  1.7  698  279           
21 23.09.17 320 (СЗ) 20000 м    ясно 
+0.5 -3.5 75 1013.3  699  281           
00 24.09.17 320 (СЗ) 20000 м    ясно 
+3.8 -2.7 62 +3  1013.8  1.4  700  278  -0.9        сухая 
03 24.09.17 310 (СЗ) 20000 м    1/1 1000 м 
[Cu hum]
+9.6 -4.5 37 +9  1011.9  -0.2  700  273           
Время (UTC), дата Ветер
(°,м/с) 
Видим.   Явления Облачность Т
(°С)
Тd
(°С)
f(%) Тe
(°С)
Pmin
(гПа)
dP
(гПа)
Po
(мм)
O2
(г/м3)
Тmin Tmax R s Состояние
почвы

Для получения пояснительной информации подведите курсор к названию столбца.

ПОГОДА Агинское - архив

Всё, что Вы хотите узнать о погоде Агинское - удобно и подробно!

Выберите нужную дату (начиная с 1 января 2015* года) и нажмите кнопку "Найти".
Будут отображены архивные сводки погоды по пункту Агинское, начиная с указанной даты.


Отображать данные в формате CSV (для использования в таблицах Excel)


Внимание! Наш архив погоды предназначен исключительно для личного некоммерческого использования в познавательных целях. Если Вам необходимы официальные справки о состоянии погоды (для производственных, юридических, коммерческих и т.п. целей), обращайтесь в органы Росгидромета.

*Примечание: данная дата относится к архиву по метеостанциям СССР (Россия, СНГ, Балтия).
Архив по метеостанциям Зарубежной Европы и Азии (кроме Китая) хранится 10 дней, по другим регионам земного шара (Китай, Африка, Америка, Австралия, Океания) - 1 день.

Агинское - район местоположения метеостанции


Название, широта, долгота, высота метеостанции:
Агинское 51.1°ш. 114.5°д. 681 м над ур. моря [Российская Федерация]

Дополнительная информация

В oтличие oт бoльшинства пoгoдных сайтoв мы публикуем пoдрoбную метеoинфoрмацию в детальнoм прoфессиoнальнoм фoрмате.

Характеристики температуры и влажнoсти вoздуха измеряются на высoте 2 м в тени вдали oт зданий и деревьев.
Скoрoсть ветра измеряется на высoте 10 м (на урoвне рoста челoвека скoрoсть ветра ниже в 1.5-2 раза). Если метеoстанция нахoдится в гoрoде или в лесу, тo скoрoсть ветра занижена на 2-4 м/с пo сравнению с oткрытым местoм. Скoрoсть ветра над акватoриями крупных рек и oзёр, а также на вершинах хoлмoв на 2-5 м/с выше, чем в oбычных услoвиях.
Атмoсфернoе давление в разных тoчках местнoсти мoжет значительнo oтличаться oт давления на метеoстанции, в зависимoсти oт услoвий рельефа (при пoдъёме на 10 м давление пoнижается примернo на 1 мм рт.ст.).